TimeCEST,TemperatureF,Dew PointF,Humidity,Sea Level PressureIn,VisibilityMPH,Wind Direction,Wind SpeedMPH,Gust SpeedMPH,PrecipitationIn,Events,Conditions,WindDirDegrees,DateUTC
12:00 AM,51.8,51.8,100,29.86,3.1,ESE,6.9,-,N/A,Rain,Light Rain Showers,120,2013-06-17 22:00:00
12:30 AM,51.8,51.8,100,29.86,4.3,ESE,4.6,-,N/A,,Partly Cloudy,120,2013-06-17 22:30:00
1:00 AM,51.8,51.8,100,29.86,6.2,ESE,5.8,-,N/A,,Partly Cloudy,120,2013-06-17 23:00:00
1:30 AM,51.8,51.8,100,29.86,6.2,ESE,5.8,-,N/A,,Partly Cloudy,120,2013-06-17 23:30:00
2:00 AM,51.8,51.8,100,29.86,6.2,SE,4.6,-,N/A,,Scattered Clouds,140,2013-06-18 00:00:00
2:30 AM,50.0,50.0,100,29.86,6.2,SE,4.6,-,N/A,,Scattered Clouds,140,2013-06-18 00:30:00
3:00 AM,50.0,50.0,100,29.86,6.2,Variable,1.2,-,N/A,,Scattered Clouds,0,2013-06-18 01:00:00
3:30 AM,50.0,50.0,100,29.89,6.2,ENE,3.5,-,N/A,,Mostly Cloudy,70,2013-06-18 01:30:00
4:00 AM,51.8,51.8,100,29.92,6.2,ENE,5.8,-,N/A,,Mostly Cloudy,70,2013-06-18 02:00:00
4:30 AM,50.0,50.0,100,29.92,6.2,East,3.5,-,N/A,,Mostly Cloudy,80,2013-06-18 02:30:00
5:00 AM,50.0,50.0,100,29.92,6.2,Variable,2.3,-,N/A,,Mostly Cloudy,0,2013-06-18 03:00:00
5:30 AM,51.8,51.8,100,29.92,6.2,Calm,Calm,-,N/A,,Scattered Clouds,0,2013-06-18 03:30:00
6:00 AM,50.0,50.0,100,29.92,6.2,Calm,Calm,-,N/A,,Scattered Clouds,0,2013-06-18 04:00:00
6:30 AM,48.2,48.2,100,29.92,1.9,Variable,1.2,-,N/A,Fog,Patches of Fog,0,2013-06-18 04:30:00
7:00 AM,46.4,46.4,100,29.92,6.2,Variable,1.2,-,N/A,Fog,Patches of Fog,0,2013-06-18 05:00:00
7:30 AM,48.2,48.2,100,29.95,6.2,Calm,Calm,-,N/A,Fog,Partly Cloudy,0,2013-06-18 05:30:00
8:00 AM,50.0,50.0,100,29.95,6.2,Calm,Calm,-,N/A,Fog,Partly Cloudy,0,2013-06-18 06:00:00
8:30 AM,50.0,50.0,100,29.98,6.2,Variable,2.3,-,N/A,Fog,Partly Cloudy,0,2013-06-18 06:30:00
9:00 AM,51.8,51.8,100,30.01,6.2,North,4.6,-,N/A,,Partly Cloudy,360,2013-06-18 07:00:00
9:30 AM,53.6,53.6,100,30.01,6.2,North,5.8,-,N/A,,Partly Cloudy,360,2013-06-18 07:30:00
10:00 AM,55.4,53.6,94,30.01,6.2,Variable,3.5,-,N/A,,Scattered Clouds,0,2013-06-18 08:00:00
10:30 AM,57.2,55.4,94,30.01,6.2,NNW,10.4,-,N/A,,Scattered Clouds,340,2013-06-18 08:30:00
11:00 AM,57.2,55.4,94,30.01,6.2,North,3.5,-,N/A,,Mostly Cloudy,360,2013-06-18 09:00:00
11:30 AM,60.8,55.4,82,30.01,6.2,North,8.1,-,N/A,,Mostly Cloudy,360,2013-06-18 09:30:00
12:00 PM,60.8,55.4,82,30.01,6.2,NNE,6.9,-,N/A,,Mostly Cloudy,20,2013-06-18 10:00:00
12:30 PM,60.8,53.6,77,30.01,6.2,North,9.2,-,N/A,,Mostly Cloudy,360,2013-06-18 10:30:00
1:00 PM,64.4,55.4,73,30.01,6.2,North,9.2,-,N/A,,Mostly Cloudy,360,2013-06-18 11:00:00
1:30 PM,62.6,51.8,68,30.01,6.2,North,10.4,-,N/A,,Mostly Cloudy,350,2013-06-18 11:30:00
2:00 PM,60.8,53.6,77,30.01,6.2,North,10.4,-,N/A,,Mostly Cloudy,350,2013-06-18 12:00:00
2:30 PM,60.8,53.6,77,30.01,6.2,NNW,11.5,-,N/A,,Mostly Cloudy,340,2013-06-18 12:30:00
3:00 PM,60.8,53.6,77,30.01,6.2,NNW,13.8,-,N/A,,Mostly Cloudy,340,2013-06-18 13:00:00
3:30 PM,60.8,53.6,77,30.01,6.2,NNW,12.7,-,N/A,,Mostly Cloudy,340,2013-06-18 13:30:00
4:00 PM,59.0,53.6,82,30.04,6.2,North,10.4,-,N/A,,Mostly Cloudy,350,2013-06-18 14:00:00
4:30 PM,59.0,51.8,77,30.04,6.2,North,11.5,-,N/A,,Mostly Cloudy,10,2013-06-18 14:30:00
5:00 PM,57.2,51.8,82,30.04,6.2,North,9.2,-,N/A,,Mostly Cloudy,360,2013-06-18 15:00:00
5:30 PM,57.2,53.6,88,30.04,6.2,North,9.2,-,N/A,Rain,Light Rain,10,2013-06-18 15:30:00
6:00 PM,55.4,51.8,88,30.04,6.2,NNW,10.4,-,N/A,Rain,Light Rain,340,2013-06-18 16:00:00
6:30 PM,53.6,51.8,94,30.04,6.2,North,9.2,-,N/A,Rain,Light Rain,350,2013-06-18 16:30:00
7:00 PM,53.6,53.6,100,30.04,6.2,North,9.2,-,N/A,Rain,Rain,350,2013-06-18 17:00:00
7:30 PM,53.6,51.8,94,30.04,6.2,NNW,6.9,-,N/A,Rain,Light Rain,330,2013-06-18 17:30:00
8:00 PM,53.6,51.8,94,30.04,5.6,NNW,5.8,-,N/A,Rain,Light Rain,340,2013-06-18 18:00:00
8:30 PM,53.6,51.8,94,30.04,5.6,North,3.5,-,N/A,Rain,Light Rain,360,2013-06-18 18:30:00
9:00 PM,53.6,53.6,100,30.04,5.6,Variable,1.2,-,N/A,Rain,Light Rain,0,2013-06-18 19:00:00
9:10 PM,53.6,53.6,100,30.04,1.9,Variable,2.3,-,N/A,Rain,Rain,0,2013-06-18 19:10:00
9:30 PM,53.6,53.6,100,30.04,4.3,NW,3.5,-,N/A,Rain,Rain,320,2013-06-18 19:30:00
10:00 PM,51.8,51.8,100,30.06,1.9,Variable,1.2,-,N/A,Rain,Light Rain,0,2013-06-18 20:00:00
10:18 PM,51.8,51.8,100,30.06,3.7,Calm,Calm,-,N/A,Rain,Light Rain,0,2013-06-18 20:18:00
10:30 PM,53.6,53.6,100,30.06,5.0,Calm,Calm,-,N/A,,Mostly Cloudy,0,2013-06-18 20:30:00
10:36 PM,51.8,51.8,100,30.06,3.1,Variable,1.2,-,N/A,,Mostly Cloudy,0,2013-06-18 20:36:00
11:00 PM,51.8,51.8,100,30.06,2.2,Variable,1.2,-,N/A,,Mostly Cloudy,0,2013-06-18 21:00:00
11:30 PM,53.6,53.6,100,30.06,1.6,Calm,Calm,-,N/A,,Overcast,0,2013-06-18 21:30:00